Location: Unnamed Road
(35.9029°N, 51.9749°E)
Time: 10:15:26
(UTC+04:30)

Vanguard 2 Rocket - All Passes

Search period start: 28 May 2020 00:00
Search period end: 07 June 2020 00:00
Orbit: 555 x 3325 km, 32.9° (Epoch: 27 May)

Date Brightness Start Highest point End Pass type
(mag) Time Alt. Az. Time Alt. Az. Time Alt. Az.
28 May - 00:18:04 10° W 00:32:40 27° SW 00:46:55 10° S visible
28 May - 14:22:30 10° S 14:27:50 23° SE 14:35:40 10° E daylight
28 May - 16:32:19 10° WSW 16:40:42 64° SSE 16:55:44 10° E daylight
28 May - 18:44:53 10° W 18:56:31 80° S 19:15:40 10° E daylight
28 May - 20:58:59 10° W 21:14:03 64° SSW 21:34:05 10° SE visible
28 May - 23:15:32 10° W 23:31:18 36° SW 23:48:01 10° SSE visible
29 May - 13:26:42 10° SSE 13:28:54 12° SE 13:31:28 10° ESE daylight
29 May - 15:33:42 10° SW 15:40:43 50° SSE 15:53:02 10° E daylight
29 May - 17:45:29 10° W 17:55:23 78° S 18:12:47 10° E daylight
29 May - 19:58:53 10° W 20:12:15 71° SSW 20:32:10 10° ESE daylight
29 May - 22:14:05 10° W 22:29:41 45° SSW 22:48:04 10° SSE visible
30 May - 00:35:04 10° W 00:45:59 18° SW 00:56:53 10° S visible
30 May - 14:35:30 10° SSW 14:41:15 34° SE 14:50:32 10° E daylight
30 May - 16:46:24 10° WSW 16:54:44 72° SSE 17:09:56 10° E daylight
30 May - 18:59:10 10° W 19:10:44 76° S 19:29:43 10° ESE daylight
30 May - 21:13:22 10° W 21:27:57 54° SSW 21:47:15 10° SE visible
30 May - 23:31:07 10° W 23:44:46 26° SW 23:59:19 10° S visible
31 May - 13:38:02 10° S 13:42:12 20° SE 13:47:58 10° E daylight
31 May - 15:47:34 10° WSW 15:54:35 62° SSE 16:07:18 10° E daylight
31 May - 17:59:45 10° W 18:09:36 78° S 18:26:56 10° E daylight
31 May - 20:13:12 10° W 20:26:17 62° SSW 20:45:41 10° SE visible
31 May - 22:29:01 10° W 22:43:19 34° SW 23:00:07 10° SSE visible
01 Jun - 14:49:04 10° SW 14:54:56 46° SSE 15:04:59 10° E daylight
01 Jun - 17:00:36 10° W 17:08:55 77° S 17:24:07 10° E daylight
01 Jun - 19:13:28 10° W 19:24:53 68° SSW 19:43:32 10° ESE daylight
01 Jun - 21:27:59 10° W 21:41:46 42° SSW 21:59:52 10° SSE visible
01 Jun - 23:48:22 10° WSW 23:58:19 17° SW 00:08:49 10° S visible
02 Jun - 13:50:59 10° SSW 13:55:42 30° SE 14:02:57 10° E daylight
02 Jun - 16:01:41 10° WSW 16:08:40 71° S 16:21:30 10° E daylight
02 Jun - 18:14:03 10° W 18:23:50 73° S 18:40:58 10° ESE daylight
02 Jun - 20:27:39 10° W 20:40:17 50° SSW 20:58:44 10° SE visible
02 Jun - 22:44:47 10° W 22:57:00 24° SW 23:11:07 10° S visible
03 Jun - 12:53:37 10° S 12:56:47 17° SE 13:00:49 10° ESE daylight
03 Jun - 15:02:59 10° WSW 15:08:52 59° SSE 15:19:16 10° E daylight
03 Jun - 17:14:53 10° W 17:23:09 76° S 17:38:16 10° E daylight
03 Jun - 19:27:49 10° W 19:38:59 58° SSW 19:56:59 10° SE daylight
03 Jun - 21:43:03 10° W 21:55:37 31° SSW 22:11:41 10° SSE visible
04 Jun - 14:04:33 10° SW 14:09:29 42° SSE 14:17:28 10° E daylight
04 Jun - 16:15:55 10° W 16:22:53 75° S 16:35:43 10° E daylight
04 Jun - 18:28:23 10° W 18:38:01 65° SSW 18:54:45 10° ESE daylight
04 Jun - 20:42:22 10° W 20:54:16 39° SSW 21:11:11 10° SSE visible
04 Jun - 23:02:31 10° WSW 23:10:49 15° SW 23:19:57 10° SSW visible
05 Jun - 13:06:29 10° SSW 13:10:24 26° SSE 13:15:57 10° E daylight
05 Jun - 15:17:08 10° WSW 15:23:00 68° S 15:33:30 10° E daylight
05 Jun - 17:29:11 10° W 17:37:24 70° S 17:52:17 10° ESE daylight
05 Jun - 19:42:20 10° W 19:53:05 46° SSW 20:09:56 10° SE daylight
05 Jun - 21:59:04 10° WSW 22:09:32 21° SW 22:22:18 10° S visible
06 Jun - 12:09:11 10° S 12:11:31 14° SE 12:14:14 10° ESE daylight
06 Jun - 14:18:29 10° WSW 14:23:28 56° SSE 14:31:48 10° E daylight
06 Jun - 16:30:13 10° W 16:37:08 73° S 16:49:52 10° ESE daylight
06 Jun - 18:42:46 10° W 18:52:11 53° SSW 19:08:08 10° SE daylight
06 Jun - 20:57:36 10° W 21:08:18 28° SSW 21:22:46 10° SSE visible
